Location: Hickory_CSC
(35.7330°N, 81.3330°W)
Time: 23:21:50
(UTC-05:00)

ISS - All Passes

Search period start: 25 January 2015 00:00
Search period end: 04 February 2015 00:00
Orbit: 402 x 410 km, 51.6° (Epoch: 25 January)

Date Brightness Start Highest point End Pass type
(mag) Time Alt. Az. Time Alt. Az. Time Alt. Az.
25 Jan - 00:49:37 10° WNW 00:52:01 18° NNW 00:54:24 10° NNE night (unlit)
25 Jan - 05:42:51 10° NNW 05:45:20 19° NNE 05:47:51 10° E visible
25 Jan - 07:18:51 10° WNW 07:22:00 42° SW 07:25:08 10° SSE daylight
25 Jan - 22:21:05 10° S 22:23:40 22° SE 22:26:20 10° ENE night (unlit)
25 Jan - 23:57:08 10° W 00:00:05 30° NW 00:03:03 10° NNE night (unlit)
26 Jan - 04:51:45 10° N 04:53:19 13° NNE 04:54:58 10° NE visible
26 Jan - 06:26:58 10° NW 06:30:18 86° NE 06:33:35 10° SE visible
26 Jan - 21:31:13 10° SE 21:32:03 11° SE 21:33:02 10° ESE night (unlit)
26 Jan - 23:05:00 10° WSW 23:08:14 58° NW 23:11:29 10° NE night (unlit)
27 Jan - 00:44:38 10° NW 00:45:22 10° NNW 00:46:02 10° N night (unlit)
27 Jan - 05:35:18 10° NW 05:38:28 41° NE 05:41:37 10° ESE visible
27 Jan - 07:12:41 10° W 07:14:46 15° SW 07:16:45 10° SSW daylight
27 Jan - 22:13:12 10° SW 22:16:26 65° SE 22:19:42 10° NE night (unlit)
27 Jan - 23:51:11 10° WNW 23:53:16 15° NNW 23:55:18 10° N night (unlit)
28 Jan - 04:43:48 10° NNW 04:46:32 24° NNE 04:49:17 10° E visible
28 Jan - 06:20:06 10° WNW 06:23:05 31° SW 06:26:02 10° SSE visible
28 Jan - 21:21:49 10° SSW 21:24:42 29° SE 21:27:38 10° ENE night (unlit)
28 Jan - 22:58:28 10° W 23:01:14 24° NNW 23:03:59 10° NNE night (unlit)
29 Jan - 03:52:29 10° N 03:54:29 15° NNE 03:56:32 10° ENE night (unlit)
29 Jan - 05:28:03 10° NW 05:31:20 69° SW 05:34:36 10° SE visible
29 Jan - 20:31:09 10° SSE 20:33:00 15° SE 20:34:57 10° E night (unlit)
29 Jan - 22:06:07 10° WSW 22:09:15 43° NW 22:12:25 10° NE night (unlit)
30 Jan - 03:01:51 10° NNE 03:02:20 10° NNE 03:02:55 10° NNE night (unlit)
30 Jan - 04:36:14 10° NW 04:39:29 55° NE 04:42:44 10° ESE visible
30 Jan - 06:14:25 10° WSW 06:15:41 12° SW 06:16:48 10° SSW visible
30 Jan - 21:14:06 10° SW 21:17:23 89° E 21:20:40 10° NE night (unlit)
30 Jan - 22:52:38 10° NW 22:54:19 13° NNW 22:55:56 10° N night (unlit)
31 Jan - 03:44:35 10° NNW 03:47:32 29° NE 03:50:28 10° E night (unlit)
31 Jan - 05:21:14 10° WNW 05:23:57 23° SW 05:26:37 10° S visible
31 Jan - 20:22:29 10° SSW 20:25:33 40° SE 20:28:38 10° ENE visible
31 Jan - 21:59:39 10° W 22:02:11 20° NNW 22:04:41 10° NNE night (unlit)
01 Feb - 02:53:07 10° NNW 02:55:26 18° NNE 02:57:49 10° ENE night (unlit)
01 Feb - 04:28:57 10° WNW 04:32:09 49° SW 04:35:21 10° SSE night (unlit)
01 Feb - 19:31:22 10° S 19:33:45 19° SE 19:36:12 10° E visible
01 Feb - 21:07:06 10° WSW 21:10:06 33° NW 21:13:08 10° NNE night (unlit)
02 Feb - 02:01:58 10° N 02:03:15 12° NNE 02:04:37 10° NE night (unlit)
02 Feb - 03:36:59 10° NW 03:40:17 75° NE 03:43:34 10° SE night (unlit)
02 Feb - 20:14:52 10° SW 20:18:07 67° NW 20:21:23 10° NE visible
02 Feb - 21:54:03 10° NW 21:55:10 11° NNW 21:56:13 10° N night (unlit)
03 Feb - 02:45:12 10° NNW 02:48:17 36° NE 02:51:23 10° ESE night (unlit)
03 Feb - 04:22:16 10° W 04:24:37 18° SW 04:26:53 10° S night (unlit)
03 Feb - 19:22:59 10° SSW 19:26:11 55° SE 19:29:24 10° ENE visible
03 Feb - 21:00:42 10° WNW 21:02:56 17° NNW 21:05:08 10° NNE visible
